Suehiro Maru No.8 — JK5423 — position and weather

sailwx.info

Track history (hours):
 
Tides and Currents Weather Stations Pressure Air Temp Water Temp Dewpoint Dewpoint Depression Visibility Wind Speed Wind Dir Waves Ship Positions

Suehiro Maru No.8

Last reported at 2014-Oct-25 15:13 UTC. Time now 2014-Oct-31 21:32 UTC.
Position N 35°12' E 139°45'.

Length 88 m; draft 3.8 m.

Type: Cargo ship. MMSI: 431400446.

Date/timePositionNaut miles runAvg speedWind from/ knotsBaromVisibWave heightAir tempDewpointWater temp
2014-Oct-25 15:13N 35°12' E 139°45'811.8
2014-Oct-25 14:33N 35°19' E 139°43'1111.0
2014-Oct-25 13:33N 35°29' E 139°50'8 8.2
2014-Oct-25 12:33N 35°28' E 140°00'0 0.0
2014-Oct-25 11:32N 35°28' E 140°00'0 0.0
2014-Oct-25 10:32N 35°28' E 140°00'0 0.0
2014-Oct-25 09:30N 35°28' E 140°00'0 0.0
2014-Oct-25 08:33N 35°28' E 140°00'0 0.0
2014-Oct-24 23:05N 35°28' E 139°60'4 6.7
2014-Oct-24 22:33N 35°29' E 139°56'1111.3
2014-Oct-24 21:33N 35°22' E 139°45'1111.1
2014-Oct-24 20:33N 35°11' E 139°46'1312.2
2014-Oct-24 19:31N 35°01' E 139°37'  
2014-Oct-20 09:30N 35°12' E 139°46'1112.2
2014-Oct-20 08:34N 35°23' E 139°43'1211.4
2014-Oct-20 07:32N 35°33' E 139°51'5 4.6
2014-Oct-20 06:30N 35°37' E 139°49'0 0.0
2014-Oct-20 05:33N 35°37' E 139°49'0 0.0
2014-Oct-20 04:31N 35°37' E 139°49'0 0.0
2014-Oct-20 03:19N 35°37' E 139°49'0 0.0
2014-Oct-20 01:12N 35°37' E 139°49'4 6.7
2014-Oct-20 00:34N 35°34' E 139°51'1211.8
2014-Oct-19 23:34N 35°22' E 139°53'0 0.0
2014-Oct-19 22:34N 35°22' E 139°53'0 0.0
2014-Oct-19 21:33N 35°22' E 139°53'0 0.0
2014-Oct-19 20:33N 35°22' E 139°53'0 0.0
2014-Oct-19 19:33N 35°22' E 139°53'0 0.0
2014-Oct-19 18:34N 35°22' E 139°53'0 0.0
2014-Oct-19 17:33N 35°22' E 139°53'0 0.0
2014-Oct-19 16:33N 35°22' E 139°53'0 0.0
2014-Oct-19 15:33N 35°22' E 139°53'0 0.0
2014-Oct-19 14:34N 35°22' E 139°53'0 0.0
2014-Oct-19 13:33N 35°22' E 139°53'0 0.0
2014-Oct-19 12:33N 35°22' E 139°53'0 0.0
2014-Oct-19 11:34N 35°22' E 139°53'2 1.6
2014-Oct-19 10:33N 35°23' E 139°51'0 0.5
2014-Oct-19 09:33N 35°23' E 139°51'0 0.0
2014-Oct-19 08:33N 35°23' E 139°51'0 0.0
2014-Oct-19 07:34N 35°23' E 139°51'0 0.0
2014-Oct-19 06:33N 35°23' E 139°51'0 0.1
2014-Oct-19 05:33N 35°23' E 139°51'6 6.4
2014-Oct-19 04:33N 35°30' E 139°52'7 6.1
2014-Oct-19 03:27N 35°28' E 140°00'0 0.0
2014-Oct-19 02:34N 35°28' E 140°00'0 0.0
2014-Oct-19 01:33N 35°28' E 140°00'0 0.0
2014-Oct-18 23:31N 35°28' E 140°00'2 2.4
2014-Oct-18 22:33N 35°30' E 139°58'0 0.0
2014-Oct-18 21:34N 35°30' E 139°58'0 0.0
2014-Oct-18 20:34N 35°30' E 139°58'0 0.0
2014-Oct-18 19:33N 35°30' E 139°58'0 0.0
2014-Oct-18 18:34N 35°30' E 139°58'0 0.0
2014-Oct-18 17:34N 35°30' E 139°58'0 0.0
2014-Oct-18 16:34N 35°30' E 139°58'0 0.0
2014-Oct-18 15:33N 35°30' E 139°58'2 1.8
2014-Oct-18 14:33N 35°29' E 139°56'1212.3
2014-Oct-18 13:33N 35°21' E 139°45'1211.5
2014-Oct-18 12:32N 35°09' E 139°46'  
Track history (hours):
 
Tides and Currents Weather Stations Pressure Air Temp Water Temp Dewpoint Dewpoint Depression Visibility Wind Speed Wind Dir Waves Ship Positions

Suehiro Maru No.8

Last reported at 2014-Oct-25 15:13 UTC. Time now 2014-Oct-31 21:32 UTC.
Position N 35°12' E 139°45'.

Length 88 m; draft 3.8 m.

Type: Cargo ship. MMSI: 431400446.

Date/timePositionNaut miles runAvg speedWind from/ knotsBaromVisibWave heightAir tempDewpointWater temp
2014-Oct-25 15:13N 35°12' E 139°45'811.8
2014-Oct-25 14:33N 35°19' E 139°43'1111.0
2014-Oct-25 13:33N 35°29' E 139°50'8 8.2
2014-Oct-25 12:33N 35°28' E 140°00'0 0.0
2014-Oct-25 11:32N 35°28' E 140°00'0 0.0
2014-Oct-25 10:32N 35°28' E 140°00'0 0.0
2014-Oct-25 09:30N 35°28' E 140°00'0 0.0
2014-Oct-25 08:33N 35°28' E 140°00'0 0.0
2014-Oct-24 23:05N 35°28' E 139°60'4 6.7
2014-Oct-24 22:33N 35°29' E 139°56'1111.3
2014-Oct-24 21:33N 35°22' E 139°45'1111.1
2014-Oct-24 20:33N 35°11' E 139°46'1312.2
2014-Oct-24 19:31N 35°01' E 139°37'  
2014-Oct-20 09:30N 35°12' E 139°46'1112.2
2014-Oct-20 08:34N 35°23' E 139°43'1211.4
2014-Oct-20 07:32N 35°33' E 139°51'5 4.6
2014-Oct-20 06:30N 35°37' E 139°49'0 0.0
2014-Oct-20 05:33N 35°37' E 139°49'0 0.0
2014-Oct-20 04:31N 35°37' E 139°49'0 0.0
2014-Oct-20 03:19N 35°37' E 139°49'0 0.0
2014-Oct-20 01:12N 35°37' E 139°49'4 6.7
2014-Oct-20 00:34N 35°34' E 139°51'1211.8
2014-Oct-19 23:34N 35°22' E 139°53'0 0.0
2014-Oct-19 22:34N 35°22' E 139°53'0 0.0
2014-Oct-19 21:33N 35°22' E 139°53'0 0.0
2014-Oct-19 20:33N 35°22' E 139°53'0 0.0
2014-Oct-19 19:33N 35°22' E 139°53'0 0.0
2014-Oct-19 18:34N 35°22' E 139°53'0 0.0
2014-Oct-19 17:33N 35°22' E 139°53'0 0.0
2014-Oct-19 16:33N 35°22' E 139°53'0 0.0
2014-Oct-19 15:33N 35°22' E 139°53'0 0.0
2014-Oct-19 14:34N 35°22' E 139°53'0 0.0
2014-Oct-19 13:33N 35°22' E 139°53'0 0.0
2014-Oct-19 12:33N 35°22' E 139°53'0 0.0
2014-Oct-19 11:34N 35°22' E 139°53'2 1.6
2014-Oct-19 10:33N 35°23' E 139°51'0 0.5
2014-Oct-19 09:33N 35°23' E 139°51'0 0.0
2014-Oct-19 08:33N 35°23' E 139°51'0 0.0
2014-Oct-19 07:34N 35°23' E 139°51'0 0.0
2014-Oct-19 06:33N 35°23' E 139°51'0 0.1
2014-Oct-19 05:33N 35°23' E 139°51'6 6.4
2014-Oct-19 04:33N 35°30' E 139°52'7 6.1
2014-Oct-19 03:27N 35°28' E 140°00'0 0.0
2014-Oct-19 02:34N 35°28' E 140°00'0 0.0
2014-Oct-19 01:33N 35°28' E 140°00'0 0.0
2014-Oct-18 23:31N 35°28' E 140°00'2 2.4
2014-Oct-18 22:33N 35°30' E 139°58'0 0.0
2014-Oct-18 21:34N 35°30' E 139°58'0 0.0
2014-Oct-18 20:34N 35°30' E 139°58'0 0.0
2014-Oct-18 19:33N 35°30' E 139°58'0 0.0
2014-Oct-18 18:34N 35°30' E 139°58'0 0.0
2014-Oct-18 17:34N 35°30' E 139°58'0 0.0
2014-Oct-18 16:34N 35°30' E 139°58'0 0.0
2014-Oct-18 15:33N 35°30' E 139°58'2 1.8
2014-Oct-18 14:33N 35°29' E 139°56'1212.3
2014-Oct-18 13:33N 35°21' E 139°45'1211.5
2014-Oct-18 12:32N 35°09' E 139°46'  

Dump ship's entire track history